{"data":{"norad_id":49260,"epoch":"2026-09-20T02:21:28.927008Z","epoch_age_seconds":56624,"freshness":"FRESH","line1":"1 49260U 21088A   26263.09825147  .00000169  00000+0  47536-4 0  9999","line2":"2 49260  98.2196 332.0836 0001509  94.7107 265.4264 14.57099983264822","mean_motion":14.57099983,"eccentricity":0.0001509,"inclination_deg":98.2196,"raan_deg":332.0836,"arg_perigee_deg":94.7107,"mean_anomaly_deg":265.4264,"bstar":4.7536e-5,"rev_number":26482,"period_min":98.826437224658,"perigee_km":701.4849309033,"apogee_km":703.62188326815,"semimajor_km":7080.6904070857,"source":"CELESTRAK","updated_at":"2026-09-20T09:00:33.977494Z"}}